Theta_e
315 315 315 314 313 312 311 310 310 310 310 310 309 308 307 307 307 308 308 309 309 310 311 311 312 313 311 314 316 322 322 322 321 322 323 325 326 330 334 337 342 342 339 339 340 340 340
315 315 314 314 314 314 313 312 311 310 310 310 311 310 309 308 308 309 308 309 309 310 311 311 312 312 311 316 320 321 322 323 322 321 320 325 328 331 335 335 341 344 342 342 341 343 341
316 316 315 314 314 313 313 313 313 313 312 311 310 311 311 310 309 309 309 310 310 310 311 310 311 311 311 317 322 324 324 323 323 325 324 325 330 332 334 332 334 334 342 343 341 341 340
317 316 315 314 314 313 313 313 313 313 314 314 313 312 311 311 311 310 310 310 310 311 311 310 310 312 313 320 322 323 325 325 326 325 326 327 328 329 330 329 328 329 329 330 340 336 340
317 316 315 314 313 313 312 313 313 313 312 313 314 315 314 312 312 311 311 311 311 312 311 311 311 315 324 324 324 323 323 324 324 328 327 327 326 326 326 324 324 326 328 329 340 339 340
314 312 311 311 311 310 310 310 310 310 310 310 311 312 314 315 313 312 312 311 316 320 320 319 321 327 323 323 327 324 324 323 325 326 324 325 327 324 322 322 325 326 328 329 340 340 343
311 310 310 310 310 310 309 308 307 306 306 307 307 308 311 314 314 312 310 314 317 321 324 329 326 321 321 324 328 327 325 324 323 323 322 325 324 324 323 323 325 328 329 330 338 342 344
311 311 310 310 310 309 310 309 308 306 304 305 307 307 308 312 314 311 313 314 314 316 316 315 316 319 326 328 329 328 326 323 323 321 322 324 324 325 326 326 326 327 329 330 343 342 341
312 311 310 310 309 309 309 309 307 305 303 303 304 306 307 310 314 313 315 315 314 314 313 314 315 316 316 321 324 329 327 323 323 323 325 324 324 326 326 326 327 327 328 331 344 343 342
310 310 310 310 309 309 308 307 307 304 304 303 302 303 304 308 313 312 313 314 314 313 312 317 318 318 317 318 323 327 327 327 327 326 326 325 325 327 326 325 326 326 329 332 342 342 346
309 309 309 309 308 308 307 307 306 304 304 304 303 302 302 302 307 313 312 313 313 313 318 325 323 322 320 318 324 326 329 327 327 326 324 325 326 326 325 325 325 327 330 332 332 341 343
309 309 309 309 306 307 306 306 305 305 305 305 305 304 303 304 305 311 311 312 313 314 319 324 325 322 319 319 321 324 327 327 328 326 325 326 328 326 325 326 325 326 328 329 331 333 343
309 308 308 307 306 306 306 305 304 306 305 305 304 305 305 304 306 309 310 312 312 315 323 327 325 325 322 320 320 321 323 324 324 327 326 325 326 326 327 324 324 324 323 328 331 333 334
307 306 305 304 305 307 305 305 305 305 305 304 304 304 306 307 307 310 311 312 315 321 319 323 324 326 325 324 322 322 321 323 324 325 326 327 326 326 327 325 323 323 323 326 331 334 334
303 303 303 304 305 305 305 305 305 305 304 304 304 304 305 311 309 310 311 314 316 319 320 319 319 322 326 327 326 323 322 323 323 324 324 327 327 328 327 327 325 324 324 324 325 329 332
303 303 304 304 303 303 303 304 304 304 305 304 304 306 305 312 312 311 313 314 316 317 317 316 317 320 321 320 321 326 323 324 325 324 324 325 328 327 328 327 326 324 325 324 325 327 332
304 304 304 303 303 303 303 303 303 303 303 304 306 308 305 310 311 312 313 314 314 315 316 317 318 319 319 319 320 320 323 326 326 326 325 324 325 327 328 327 325 323 324 322 324 327 328
301 302 303 303 303 304 303 302 302 302 302 304 305 307 305 307 310 313 313 314 314 315 315 316 317 318 319 319 319 320 320 320 327 329 326 325 325 326 327 328 327 326 323 321 324 327 328
301 301 301 302 302 303 303 304 302 301 302 303 304 305 305 307 309 311 312 313 313 313 315 315 316 317 318 319 319 320 321 322 321 322 329 326 326 325 326 326 327 327 326 324 323 321 324
300 300 300 300 300 301 301 303 304 302 302 302 305 306 306 308 309 310 312 314 314 313 313 314 314 316 318 318 319 320 321 322 322 321 327 333 326 325 326 327 328 330 327 326 324 323 322
300 301 301 301 301 301 301 302 303 303 302 302 304 306 306 308 309 308 310 311 312 311 312 312 313 314 316 320 320 321 321 320 320 322 324 322 326 327 326 328 329 328 329 328 326 325 324
301 301 301 301 302 301 301 302 302 304 303 302 304 305 305 305 306 307 308 309 310 310 311 311 312 314 314 316 316 315 314 315 318 319 318 318 328 330 329 328 327 328 328 328 328 327 326
301 301 302 303 303 302 301 301 302 304 304 302 303 305 305 305 306 306 306 308 309 309 310 310 311 312 313 313 312 312 312 313 314 316 319 319 322 329 328 329 330 329 327 327 329 329 328
303 303 303 303 303 303 302 302 302 303 303 303 302 304 304 305 305 306 306 306 308 309 310 309 310 310 311 311 310 312 314 317 318 320 320 321 321 326 328 330 332 330 328 328 329 331 329
301 301 302 304 302 301 302 302 303 303 303 303 303 304 304 305 304 305 305 306 307 308 308 308 310 311 311 311 314 314 318 319 320 321 321 322 322 327 329 329 329 331 330 332 329 329 331
302 302 301 302 302 302 302 302 302 303 303 303 303 304 304 303 304 304 306 306 306 308 309 309 309 310 313 311 316 316 320 321 324 323 321 322 322 327 327 328 329 330 331 330 330 332 340
301 301 301 302 301 301 302 302 302 302 303 303 303 303 304 303 303 303 305 306 306 307 308 307 310 309 310 315 316 316 316 316 321 326 324 323 325 328 329 327 328 331 329 329 332 334 344
301 302 302 301 302 302 302 302 302 302 302 302 302 303 304 304 303 304 304 305 306 306 307 308 309 309 311 316 315 317 317 318 322 324 326 329 329 329 328 332 333 339 333 342 345 344 344
301 301 301 301 301 301 301 301 302 302 302 302 302 304 304 305 304 305 306 305 305 307 307 307 308 308 310 315 315 314 320 321 324 329 324 328 330 333 333 332 339 339 340 340 341 344 342
Wind_Speed
26 26 25 24 24 24 24 25 25 25 24 24 23 22 22 22 22 22 22 22 22 22 22 22 21 18 17 10 29 12 11 10 6 17 26 22 23 23 13 11 15 6 7 13 30 33 20
27 27 27 27 26 26 25 24 25 26 27 27 25 24 24 24 23 24 24 23 23 23 21 21 21 18 15 12 17 7 19 21 16 15 20 24 21 23 19 18 13 18 16 16 17 28 17
28 28 28 28 28 28 28 29 29 28 27 27 28 27 26 25 25 25 25 24 22 22 21 19 19 19 19 37 9 6 15 16 16 18 16 23 23 24 19 14 29 11 10 13 18 19 17
28 28 28 29 29 29 30 31 32 33 33 33 32 30 28 27 26 26 26 25 23 21 19 19 17 16 18 29 13 15 20 19 14 16 19 18 19 23 23 19 22 14 9 8 10 10 20
28 27 27 28 29 29 31 33 34 34 34 35 35 35 33 30 28 29 27 24 21 20 18 16 11 10 17 13 19 28 24 25 20 21 22 14 19 26 19 8 8 8 10 10 3 3 5
29 30 28 27 28 30 31 32 33 34 34 34 34 35 35 33 27 27 27 20 14 15 9 7 10 7 21 19 17 19 23 22 22 19 19 23 19 10 9 7 11 10 8 11 7 10 7
30 28 29 29 28 29 30 33 33 34 34 35 36 34 31 30 26 23 22 16 14 5 3 11 11 14 33 15 13 20 24 29 26 21 11 21 8 16 13 15 13 14 15 13 5 11 7
29 27 29 29 29 31 30 31 32 32 33 32 34 35 36 31 23 14 11 11 13 20 17 23 37 43 41 26 16 25 27 24 21 13 10 10 19 12 14 12 18 21 18 19 12 7 9
27 27 29 28 29 30 31 31 33 34 34 30 29 32 34 33 20 5 10 16 16 16 10 23 38 32 43 37 36 23 30 32 15 18 19 17 9 18 18 19 19 23 20 15 10 5 7
26 27 28 28 29 31 31 31 33 35 35 32 28 27 29 33 8 8 4 10 8 18 5 9 10 14 25 29 13 38 36 30 14 19 18 16 18 19 22 22 18 20 21 21 15 15 8
27 28 27 28 29 29 30 31 33 34 33 31 30 27 25 20 26 19 16 12 13 14 6 7 8 6 16 29 14 32 36 34 18 18 11 19 19 21 20 24 19 23 13 18 18 7 14
27 28 28 29 30 30 30 32 33 32 30 29 28 28 26 22 20 17 12 7 10 2 10 7 10 8 12 24 18 8 37 33 24 16 18 17 20 19 20 15 20 15 15 20 15 6 4
28 28 30 31 30 30 31 33 33 31 31 31 28 26 26 23 23 13 13 6 2 7 8 8 6 12 18 11 21 17 22 23 18 19 18 20 23 16 21 17 16 20 15 12 10 10 5
29 30 31 30 28 29 32 30 30 31 32 34 33 26 19 23 22 6 3 3 10 8 14 17 16 10 17 14 20 24 23 23 25 18 8 14 17 22 15 25 15 18 17 13 10 11 9
29 29 28 28 28 28 28 28 29 31 32 33 34 30 23 17 12 12 12 9 6 9 8 17 19 10 14 17 15 20 22 21 25 23 20 14 19 8 23 17 20 8 20 14 6 10 6
27 27 28 28 28 29 28 29 29 29 30 30 34 32 25 8 14 24 11 16 8 14 24 16 11 9 9 14 14 17 20 17 21 27 23 16 7 21 18 22 17 18 6 14 12 15 18
27 27 27 28 28 28 28 28 28 28 29 28 23 13 14 11 15 24 16 13 17 28 32 13 14 23 24 23 19 23 14 22 22 25 26 25 20 18 19 18 22 8 17 10 7 14 9
27 28 28 28 28 28 28 27 26 26 26 24 12 5 10 22 13 11 12 17 29 26 33 25 20 26 26 25 27 25 23 20 19 26 25 24 17 17 24 15 23 24 14 11 9 5 5
28 28 29 29 29 29 28 26 24 23 21 19 12 20 20 12 5 10 14 21 24 21 17 16 23 24 22 25 24 15 23 27 29 22 25 16 20 12 15 17 20 24 20 15 13 5 15
27 27 28 28 28 28 27 25 22 20 18 13 8 5 10 22 12 13 11 12 13 20 16 19 17 22 20 24 17 16 23 20 21 19 23 9 20 28 20 19 5 7 22 19 19 16 10
28 29 30 30 28 28 26 23 21 15 14 11 5 6 16 7 12 17 4 7 19 10 15 19 10 17 17 11 15 9 12 15 21 22 15 4 15 21 27 16 16 25 14 26 25 21 17
30 32 32 30 28 27 25 22 19 13 13 12 6 6 9 18 19 17 14 11 17 13 9 11 13 22 14 8 17 20 19 15 11 14 16 10 8 11 10 20 27 20 19 24 26 24 21
30 29 30 28 28 26 24 22 18 12 15 10 9 12 10 6 10 13 12 17 18 14 12 11 13 13 21 19 15 27 27 26 21 22 20 9 4 4 9 7 4 11 30 22 13 18 19
29 28 27 26 25 23 21 20 17 12 15 17 19 12 7 6 9 13 21 23 15 17 12 17 13 10 26 27 22 25 24 24 19 21 16 17 15 9 5 7 11 4 10 18 15 11 10
25 26 26 24 22 20 18 17 16 14 12 16 17 17 5 5 12 17 19 18 19 24 16 18 19 18 29 18 4 9 9 14 20 19 17 16 11 7 6 9 3 7 9 4 7 12 8
24 25 25 24 21 18 17 16 16 15 13 15 17 16 13 4 10 21 17 22 14 10 12 17 23 20 13 3 2 2 4 7 7 7 13 15 12 10 3 8 19 4 5 11 7 6 3
25 25 26 25 20 18 17 15 14 14 13 12 17 12 16 8 21 20 13 13 20 13 8 13 10 14 13 3 3 2 3 6 7 9 6 4 5 13 3 4 3 3 10 18 7 7 5
26 24 24 22 21 20 18 15 15 15 12 13 15 12 18 13 28 26 29 26 23 19 10 12 9 6 4 3 3 4 5 4 5 10 6 4 5 7 6 4 5 3 3 3 3 14 12
25 24 24 23 22 21 20 18 16 15 14 13 17 10 12 18 21 25 26 32 32 29 24 22 9 3 4 4 3 4 4 2 4 4 6 2 1 5 5 2 3 11 11 11 9 15 9
Wind_Direction
10 8 5 1 357 354 350 348 346 343 339 335 332 329 328 324 318 314 311 308 306 302 301 300 298 299 298 269 257 222 273 283 237 224 226 224 237 243 244 236 162 220 259 208 242 252 277
3 1 359 358 355 351 347 344 340 338 337 333 330 328 327 326 320 316 313 308 305 302 298 296 294 294 283 251 290 233 244 247 241 242 227 217 231 233 250 256 176 208 216 298 271 233 185
355 353 352 349 348 346 344 342 339 336 332 330 328 326 324 323 322 317 313 309 305 299 296 291 288 287 263 253 260 262 238 241 235 231 230 216 227 255 249 267 270 256 198 242 267 193 135
347 345 344 343 342 341 340 338 336 335 333 330 328 326 324 324 321 319 314 311 304 295 291 286 283 275 258 274 262 222 215 231 235 222 229 225 233 254 269 280 295 282 271 261 219 184 146
341 339 337 338 340 340 339 337 335 336 334 332 329 325 325 325 325 323 318 316 305 296 284 277 275 251 271 292 244 210 218 221 216 233 222 217 231 235 247 254 288 277 258 256 134 116 168
341 342 343 343 343 344 345 345 342 337 335 334 332 329 324 323 327 325 322 324 329 305 287 260 193 290 252 247 229 217 210 208 209 217 233 234 227 232 224 207 227 244 246 255 181 204 107
342 344 345 343 342 343 345 348 350 349 344 340 337 334 326 321 327 327 324 355 359 355 264 241 228 222 280 282 236 202 201 207 217 224 217 221 213 228 222 216 236 253 250 260 183 127 94
340 342 342 342 342 341 340 343 345 346 343 338 335 335 334 328 329 325 314 325 315 317 292 267 253 252 256 249 280 227 193 194 210 209 209 217 225 226 240 228 228 250 258 262 26 163 119
338 338 341 341 341 339 340 339 341 342 341 338 335 334 332 328 326 289 310 339 343 323 282 281 247 240 233 239 245 229 188 188 196 213 219 217 224 215 227 237 220 237 244 257 155 287 302
340 338 338 336 335 335 336 337 337 338 337 337 338 336 334 334 323 290 292 337 342 340 287 270 205 247 223 212 241 236 200 201 218 212 225 225 222 220 218 235 224 232 235 250 172 190 191
337 335 334 333 333 332 331 332 334 334 334 335 334 334 331 341 312 308 312 298 357 333 299 241 193 195 196 176 149 223 216 197 208 211 194 225 208 224 220 222 226 238 241 248 252 157 179
333 333 331 330 329 327 326 326 328 329 329 329 330 327 325 322 286 317 325 340 336 260 245 269 146 161 140 200 230 280 206 220 206 219 236 232 229 224 233 226 223 241 238 254 260 215 203
329 327 324 325 324 324 324 326 329 330 330 326 325 320 314 302 290 299 297 323 206 230 270 230 177 168 186 175 212 227 192 216 212 204 222 236 236 228 223 227 217 217 231 241 251 245 212
325 325 326 327 325 322 324 327 328 329 328 326 324 321 310 293 288 280 340 277 237 239 228 297 316 257 199 208 202 215 224 209 220 224 200 223 237 230 220 218 219 212 217 227 224 232 250
328 331 331 331 330 327 327 326 326 327 327 328 328 322 311 320 265 247 233 226 208 208 278 357 335 315 254 206 213 201 220 214 208 210 221 207 235 228 228 237 214 229 215 225 253 256 257
334 334 333 331 329 329 325 322 322 324 323 329 330 324 309 280 280 219 228 236 247 296 323 340 317 286 316 326 319 206 209 217 210 206 217 242 244 226 243 224 239 214 203 217 229 235 248
332 332 332 331 330 329 327 327 327 323 319 329 332 312 307 335 254 215 227 239 259 274 284 286 284 287 290 293 291 289 278 218 213 201 208 221 242 259 227 213 215 217 221 229 198 222 231
328 326 325 323 322 322 324 327 326 327 324 328 315 290 306 301 313 233 247 257 264 265 270 276 277 284 283 289 289 282 271 274 261 204 206 206 222 239 251 263 206 216 208 199 222 287 248
330 327 323 320 318 317 315 316 324 325 333 331 307 292 306 304 262 266 273 263 263 273 304 314 301 284 274 269 282 267 286 284 280 296 208 201 213 224 250 259 253 213 211 207 221 185 236
332 330 328 328 325 317 312 312 311 321 325 324 304 304 303 344 275 311 316 312 329 324 309 311 319 318 319 272 278 288 296 285 282 282 293 282 206 214 222 234 242 225 207 202 200 224 228
330 328 328 326 322 321 319 310 308 307 315 313 271 273 313 303 328 326 222 276 287 312 319 351 320 332 350 320 320 315 344 336 320 322 325 240 248 211 215 212 222 240 236 206 210 210 212
329 330 327 321 319 316 317 313 303 298 287 280 268 297 329 306 309 311 304 295 352 324 321 304 304 326 313 291 296 316 329 323 295 329 344 334 284 181 195 207 221 240 240 241 214 215 229
329 325 321 321 319 314 310 313 305 295 276 266 264 281 278 285 303 304 304 320 325 339 302 310 318 306 305 300 277 268 283 275 263 279 291 282 341 278 206 158 237 263 237 245 251 218 208
334 332 327 322 318 316 312 309 302 294 277 284 264 283 276 279 291 299 308 307 320 318 289 309 305 268 274 297 289 285 264 262 256 259 253 263 283 275 152 127 212 231 202 225 239 261 225
343 342 339 333 329 322 315 310 305 298 292 272 277 267 254 278 287 288 294 309 309 303 304 309 315 309 308 299 316 316 275 273 272 255 253 241 260 275 162 196 301 284 271 226 208 254 244
346 347 346 344 337 332 327 318 308 308 298 270 269 267 250 277 260 275 311 305 294 317 308 317 313 314 298 260 319 35 294 351 298 303 206 244 246 249 169 186 219 108 255 270 321 275 355
342 340 342 344 341 341 336 328 320 318 315 278 276 266 252 239 273 270 265 295 309 300 285 306 330 325 330 267 164 193 237 315 274 289 301 256 265 247 161 204 266 194 222 272 250 250 49
342 342 346 342 343 339 335 328 317 314 309 299 291 278 252 257 271 265 270 271 277 276 285 326 337 5 285 206 258 184 209 230 290 271 314 63 9 268 205 163 234 54 318 61 211 86 53
346 346 344 342 338 335 332 326 319 313 311 303 298 301 277 263 266 268 255 263 265 257 278 283 269 198 288 293 351 330 235 172 308 271 74 128 266 299 329 156 313 50 118 80 50 90 85